• In Latvia
  • List of Countries
  • For 7 days
  • Water Temperature
  • Satellite Maps
  • Weather Map
  • Weather Widgets
  • user-avatar
    Login

    Hourly Weather Elbasan

    Today, 24 April, Monday

    Time Temperature Precipitation Wind Pressure Humidity
    00:00 +7°C° 0 mm 1 mps 739 mmHg 83%
    01:00 +7°C° 0 mm 1 mps 738 mmHg 84%
    02:00 +7°C° 0 mm 1 mps 738 mmHg 84%
    03:00 +7°C° 0 mm 1 mps 738 mmHg 84%
    04:00 +7°C° 0 mm 1 mps 738 mmHg 84%
    05:00 +9°C° 0 mm 1 mps 739 mmHg 78%
    06:00 +11°C° 0 mm 1 mps 739 mmHg 71%
    07:00 +13°C° 0 mm 1 mps 739 mmHg 65%
    08:00 +15°C° 0 mm 1 mps 739 mmHg 59%
    09:00 +18°C° 0 mm 1 mps 739 mmHg 53%
    10:00 +20°C° 0 mm 1 mps 740 mmHg 47%
    11:00 +20°C° 0 mm 1 mps 739 mmHg 47%
    12:00 +19°C° 0 mm 2 mps 739 mmHg 46%
    13:00 +19°C° 0 mm 2 mps 739 mmHg 45%
    14:00 +19°C° 0 mm 2 mps 739 mmHg 48%
    15:00 +19°C° 0 mm 2 mps 739 mmHg 51%
    16:00 +18°C° 0 mm 2 mps 738 mmHg 54%
    17:00 +16°C° 0 mm 2 mps 738 mmHg 66%
    18:00 +13°C° 0 mm 1 mps 738 mmHg 78%
    19:00 +11°C° 0 mm 1 mps 738 mmHg 89%
    20:00 +10°C° 0 mm 1 mps 738 mmHg 90%
    21:00 +10°C° 0 mm 1 mps 738 mmHg 91%
    22:00 +9°C° 0 mm 1 mps 739 mmHg 92%
    23:00 +9°C° 0 mm 1 mps 739 mmHg 91%

    Tomorrow, 25 April, Tuesday

    Time Temperature Precipitation Wind Pressure Humidity
    00:00 +9°C° 0 mm 1 mps 739 mmHg 91%
    01:00 +9°C° 0 mm 1 mps 739 mmHg 91%
    02:00 +9°C° 0 mm 1 mps 738 mmHg 91%
    03:00 +9°C° 0 mm 1 mps 738 mmHg 91%
    04:00 +8°C° 0 mm 2 mps 738 mmHg 91%
    05:00 +10°C° 0 mm 2 mps 738 mmHg 84%
    06:00 +13°C° 0 mm 1 mps 738 mmHg 77%
    07:00 +14°C° 0 mm 1 mps 739 mmHg 70%
    08:00 +16°C° 0 mm 2 mps 739 mmHg 61%
    09:00 +18°C° 0 mm 2 mps 739 mmHg 52%
    10:00 +19°C° 0 mm 2 mps 739 mmHg 43%
    11:00 +20°C° 0 mm 3 mps 738 mmHg 41%
    12:00 +21°C° 0 mm 3 mps 738 mmHg 39%
    13:00 +21°C° 0 mm 3 mps 738 mmHg 37%
    14:00 +21°C° 0 mm 4 mps 738 mmHg 41%
    15:00 +20°C° 0 mm 4 mps 737 mmHg 45%
    16:00 +19°C° 0 mm 4 mps 737 mmHg 49%
    17:00 +17°C° 0 mm 3 mps 737 mmHg 60%
    18:00 +15°C° 0 mm 2 mps 737 mmHg 72%
    19:00 +12°C° 0 mm 2 mps 737 mmHg 83%
    20:00 +12°C° 0 mm 2 mps 737 mmHg 86%
    21:00 +11°C° 0 mm 1 mps 737 mmHg 88%
    22:00 +10°C° 0 mm 1 mps 738 mmHg 90%
    23:00 +10°C° 0 mm 1 mps 737 mmHg 89%

    Day after tomorrow, 26 April, Wednesday

    Time Temperature Precipitation Wind Pressure Humidity
    00:00 +9°C° 0 mm 1 mps 737 mmHg 87%
    01:00 +9°C° 0 mm 1 mps 737 mmHg 86%
    02:00 +9°C° 0 mm 1 mps 737 mmHg 83%
    03:00 +8°C° 0 mm 2 mps 736 mmHg 80%
    04:00 +7°C° 0 mm 2 mps 736 mmHg 76%
    05:00 +9°C° 0 mm 2 mps 736 mmHg 69%
    06:00 +13°C° 0 mm 2 mps 736 mmHg 61%
    07:00 +15°C° 0 mm 2 mps 736 mmHg 53%
    08:00 +17°C° 0 mm 2 mps 737 mmHg 45%
    09:00 +19°C° 0 mm 2 mps 737 mmHg 36%
    10:00 +21°C° 0 mm 2 mps 737 mmHg 28%
    11:00 +21°C° 0 mm 2 mps 736 mmHg 28%
    12:00 +22°C° 0 mm 3 mps 736 mmHg 28%
    13:00 +24°C° 0 mm 3 mps 736 mmHg 27%
    14:00 +22°C° 0 mm 3 mps 736 mmHg 31%
    15:00 +22°C° 0 mm 3 mps 736 mmHg 34%
    16:00 +21°C° 0 mm 3 mps 735 mmHg 37%
    17:00 +19°C° 0 mm 3 mps 735 mmHg 48%
    18:00 +16°C° 0 mm 2 mps 735 mmHg 59%
    19:00 +13°C° 0 mm 2 mps 735 mmHg 70%
    20:00 +13°C° 0 mm 1 mps 736 mmHg 72%
    21:00 +12°C° 0 mm 1 mps 736 mmHg 74%
    22:00 +12°C° 0 mm 1 mps 736 mmHg 76%
    23:00 +12°C° 0 mm 1 mps 736 mmHg 76%

    27 April, Thursday

    Time Temperature Precipitation Wind Pressure Humidity
    00:00 +12°C° 0 mm 1 mps 736 mmHg 75%
    01:00 +10°C° 0 mm 2 mps 736 mmHg 75%
    02:00 +10°C° 0 mm 2 mps 735 mmHg 74%
    03:00 +10°C° 0 mm 2 mps 735 mmHg 72%
    04:00 +10°C° 0 mm 2 mps 735 mmHg 71%
    05:00 +13°C° 0 mm 2 mps 735 mmHg 65%
    06:00 +16°C° 0 mm 1 mps 735 mmHg 58%
    07:00 +19°C° 0 mm 1 mps 735 mmHg 52%
    08:00 +21°C° 0 mm 1 mps 736 mmHg 46%
    09:00 +23°C° 0 mm 1 mps 736 mmHg 40%
    10:00 +25°C° 0 mm 2 mps 736 mmHg 34%
    11:00 +25°C° 0 mm 2 mps 735 mmHg 34%
    12:00 +26°C° 0 mm 3 mps 735 mmHg 33%
    13:00 +26°C° 0 mm 3 mps 735 mmHg 33%
    14:00 +26°C° 0 mm 3 mps 735 mmHg 35%
    15:00 +25°C° 0 mm 3 mps 734 mmHg 37%
    16:00 +25°C° 0 mm 3 mps 734 mmHg 39%
    17:00 +21°C° 0 mm 2 mps 734 mmHg 49%
    18:00 +18°C° 0 mm 2 mps 734 mmHg 59%
    19:00 +15°C° 0 mm 2 mps 734 mmHg 69%
    20:00 +15°C° 0 mm 2 mps 734 mmHg 70%
    21:00 +14°C° 0 mm 2 mps 734 mmHg 71%
    22:00 +14°C° 0 mm 2 mps 734 mmHg 73%
    23:00 +14°C° 0 mm 2 mps 734 mmHg 71%

    28 April, Friday

    Time Temperature Precipitation Wind Pressure Humidity
    00:00 +14°C° 0 mm 2 mps 734 mmHg 70%
    01:00 +14°C° 0 mm 2 mps 734 mmHg 68%
    02:00 +13°C° 0 mm 2 mps 734 mmHg 66%
    03:00 +13°C° 0 mm 2 mps 733 mmHg 64%
    04:00 +13°C° 0 mm 2 mps 733 mmHg 62%
    05:00 +15°C° 0 mm 2 mps 733 mmHg 57%
    06:00 +16°C° 0 mm 2 mps 734 mmHg 52%
    07:00 +18°C° 0 mm 2 mps 734 mmHg 46%
    08:00 +20°C° 0 mm 3 mps 734 mmHg 42%
    09:00 +21°C° 0 mm 4 mps 734 mmHg 37%
    10:00 +23°C° 0 mm 5 mps 734 mmHg 32%
    11:00 +23°C° 0 mm 5 mps 733 mmHg 35%
    12:00 +23°C° 0 mm 5 mps 733 mmHg 38%
    13:00 +23°C° 0 mm 5 mps 733 mmHg 40%
    14:00 +22°C° 0.1 mm 5 mps 733 mmHg 44%
    15:00 +21°C° 0.1 mm 5 mps 732 mmHg 48%
    16:00 +21°C° 0.1 mm 5 mps 732 mmHg 51%
    17:00 +19°C° 0.6 mm 4 mps 733 mmHg 62%
    18:00 +17°C° 0.6 mm 4 mps 733 mmHg 72%
    19:00 +14°C° 0.6 mm 3 mps 733 mmHg 82%
    20:00 +14°C° 0.1 mm 3 mps 733 mmHg 82%
    21:00 +14°C° 0.1 mm 3 mps 733 mmHg 82%
    22:00 +14°C° 0.1 mm 2 mps 733 mmHg 82%
    23:00 +14°C° 0.5 mm 2 mps 733 mmHg 83%

    29 April, Saturday

    Time Temperature Precipitation Wind Pressure Humidity
    00:00 +14°C° 0.5 mm 2 mps 733 mmHg 83%
    01:00 +13°C° 0.5 mm 2 mps 732 mmHg 83%
    02:00 +13°C° 0.8 mm 2 mps 732 mmHg 84%
    03:00 +12°C° 0.8 mm 1 mps 732 mmHg 85%
    04:00 +12°C° 0.8 mm 1 mps 732 mmHg 87%
    05:00 +13°C° 0.4 mm 1 mps 732 mmHg 82%
    06:00 +14°C° 0.4 mm 1 mps 733 mmHg 78%
    07:00 +16°C° 0.4 mm 1 mps 733 mmHg 74%
    08:00 +18°C° 0.2 mm 1 mps 733 mmHg 70%
    09:00 +18°C° 0.2 mm 1 mps 733 mmHg 65%
    10:00 +19°C° 0.2 mm 1 mps 733 mmHg 61%
    11:00 +18°C° 0.5 mm 2 mps 732 mmHg 64%
    12:00 +17°C° 0.5 mm 2 mps 732 mmHg 68%
    13:00 +17°C° 0.5 mm 2 mps 732 mmHg 72%
    14:00 +16°C° 0.9 mm 2 mps 732 mmHg 77%
    15:00 +15°C° 0.9 mm 2 mps 732 mmHg 83%
    16:00 +14°C° 0.9 mm 2 mps 732 mmHg 88%
    17:00 +14°C° 0.5 mm 1 mps 732 mmHg 89%
    18:00 +13°C° 0.5 mm 1 mps 732 mmHg 90%
    19:00 +13°C° 0.5 mm 1 mps 733 mmHg 91%
    20:00 +12°C° 0.4 mm 1 mps 733 mmHg 91%
    21:00 +12°C° 0.4 mm 1 mps 733 mmHg 92%
    22:00 +12°C° 0.4 mm 1 mps 733 mmHg 92%
    23:00 +11°C° 0.3 mm 1 mps 733 mmHg 93%
    Show more